Tracking 25378 objects as of 22-Jan-2022
HD Live streaming from Space Station
objects crossing your sky now

STARLINK-1667

Track STARLINK-1667 now!
10-day predictions
STARLINK-1667 is classified as:


NORAD ID: 46155
Int'l Code: 2020-057AQ
Perigee: 552.7 km
Apogee: 556.0 km
Inclination: 53.1 °
Period: 95.6 minutes
Semi major axis: 6925 km
RCS: Unknown
Launch date: August 18, 2020
Source: United States (US)
Launch site: AIR FORCE EASTERN TEST RANGE (AFETR)
aabbcc
Your satellite tracking list
Your tracking list is empty




NASA's NSSDC Master Catalog

Two Line Element Set (TLE):
1 46155U 20057AQ  22021.81575999 -.00000987  00000-0 -47357-4 0  9991
2 46155  53.0526 205.7215 0002394  78.5408 281.5849 15.06389325 80597
Source of the keplerian elements: AFSPC